This demonstration page uses our WeatherBlox Daily Observations layout. Learn more.

Left ArrowRight Arrow

34.02893, -84.19858

Hourly Observations for November 6, 2016

Temp ( °F °C ) Dew Point ( °F °C ) Humidity (%) Winds ( mph kmh ) Pressure ( in mb ) Visibility ( mi km ) Precip ( " mm )
12:53 am 00:53 Clear 49 9.4 43 6.1 80 80 Calm 30.30 1026 10 16 0.00 0.00
1:53 am 01:53 Clear 48 8.9 42 5.6 80 80 Calm 30.30 1026 10 16 0.00 0.00
1:53 am 01:53 Clear 48 8.9 42 5.6 80 80 Calm 30.29 1026 10 16 0.00 0.00
2:53 am 02:53 Clear 46 7.8 42 5.6 86 86 Calm 30.31 1026 9 14 0.00 0.00
3:53 am 03:53 Clear 45 7.2 41 5 86 86 Calm 30.31 1026 9 14 0.00 0.00
4:53 am 04:53 Clear 44 6.7 40 4.4 85 85 Calm 30.31 1026 9 14 0.00 0.00
5:53 am 05:53 Clear 44 6.7 40 4.4 85 85 Calm 30.33 1027 9 14 0.00 0.00
6:53 am 06:53 Clear 43 6.1 39 3.9 86 86 Calm 30.35 1028 8 13 0.00 0.00
7:53 am 07:53 Sunny 46 7.8 44 6.7 93 93 Calm 30.36 1028 7 11 0.00 0.00
8:53 am 08:53 Sunny 56 13.3 44 6.7 65 65 Calm 30.36 1028 9 14 0.00 0.00
9:53 am 09:53 Sunny 63 17.2 40 4.4 43 43 Calm 30.35 1028 10 16 0.00 0.00
10:53 am 10:53 Sunny 66 18.9 39 3.9 37 37 N 5 7 30.33 1027 10 16 0.00 0.00
11:53 am 11:53 Sunny 69 20.6 40 4.4 35 35 VRB 3 6 30.31 1026 10 16 0.00 0.00
12:53 pm 12:53 Sunny 70 21.1 39 3.9 32 32 VRB 3 6 30.28 1025 10 16 0.00 0.00
1:53 pm 13:53 Sunny 71 21.7 38 3.3 30 30 Calm 30.26 1025 10 16 0.00 0.00
2:53 pm 14:53 Sunny 71 21.7 38 3.3 30 30 Calm 30.24 1024 10 16 0.00 0.00
3:53 pm 15:53 Sunny 72 22.2 38 3.3 29 29 VRB 3 6 30.24 1024 10 16 0.00 0.00
4:53 pm 16:53 Sunny 69 20.6 38 3.3 32 32 SSE 3 6 30.26 1025 10 16 0.00 0.00
5:53 pm 17:53 Clear 62 16.7 41 5 46 46 Calm 30.27 1025 10 16 0.00 0.00
6:53 pm 18:53 Clear 56 13.3 41 5 57 57 Calm 30.28 1026 10 16 0.00 0.00
7:53 pm 19:53 Clear 56 13.3 42 5.6 60 60 Calm 30.29 1026 10 16 0.00 0.00
8:53 pm 20:53 Clear 54 12.2 42 5.6 64 64 Calm 30.29 1026 10 16 0.00 0.00
9:53 pm 21:53 Clear 50 10 42 5.6 74 74 Calm 30.29 1026 10 16 0.00 0.00
10:53 pm 22:53 Clear 49 9.4 42 5.6 77 77 Calm 30.29 1026 10 16 0.00 0.00
11:53 pm 23:53 Clear 47 8.3 40 4.4 77 77 Calm 30.31 1026 10 16 0.00 0.00

Powered by AerisWeather